Time,TemperatureF,DewpointF,PressureIn,WindDirection,WindDirectionDegrees,WindSpeedMPH,WindSpeedGustMPH,Humidity,HourlyPrecipIn,Conditions,Clouds,dailyrainin,SoftwareType,DateUTC
2013-08-13 00:01:00,82.4,56.0,29.72,ESE,118,5.0,16.0,41,0.00,,,0.00,weatherlink.com 1.10,2013-08-13 06:01:00,
2013-08-13 00:16:00,82.3,56.0,29.72,ESE,105,2.0,11.0,41,0.00,,,0.00,weatherlink.com 1.10,2013-08-13 06:16:00,
2013-08-13 00:32:00,82.1,57.0,29.72,SSE,162,6.0,13.0,42,0.00,,,0.00,weatherlink.com 1.10,2013-08-13 06:32:00,
2013-08-13 00:46:00,81.8,56.0,29.72,SSE,148,5.0,12.0,42,0.00,,,0.00,weatherlink.com 1.10,2013-08-13 06:46:00,
2013-08-13 01:01:00,82.0,56.0,29.72,ENE,68,5.0,15.0,41,0.00,,,0.00,weatherlink.com 1.10,2013-08-13 07:01:00,
2013-08-13 01:16:00,82.0,56.0,29.71,ENE,74,4.0,14.0,41,0.00,,,0.00,weatherlink.com 1.10,2013-08-13 07:16:00,
2013-08-13 01:31:00,81.6,56.0,29.71,SE,124,13.0,18.0,42,0.00,,,0.00,weatherlink.com 1.10,2013-08-13 07:31:00,
2013-08-13 01:46:00,81.2,57.0,29.71,SE,145,5.0,17.0,43,0.00,,,0.00,weatherlink.com 1.10,2013-08-13 07:46:00,
2013-08-13 02:01:00,81.0,56.0,29.71,ENE,74,16.0,19.0,43,0.00,,,0.00,weatherlink.com 1.10,2013-08-13 08:01:00,
2013-08-13 02:16:00,80.7,57.0,29.70,East,89,21.0,21.0,44,0.00,,,0.00,weatherlink.com 1.10,2013-08-13 08:16:00,
2013-08-13 02:31:00,80.5,57.0,29.70,SE,130,8.0,20.0,44,0.00,,,0.00,weatherlink.com 1.10,2013-08-13 08:31:00,
2013-08-13 02:46:00,80.4,57.0,29.70,East,95,17.0,20.0,45,0.00,,,0.00,weatherlink.com 1.10,2013-08-13 08:46:00,
2013-08-13 03:01:00,80.3,57.0,29.72,West,259,2.0,20.0,45,0.00,,,0.00,weatherlink.com 1.10,2013-08-13 09:01:00,
2013-08-13 03:16:00,77.4,59.0,29.73,NNW,331,4.0,8.0,54,0.00,,,0.00,weatherlink.com 1.10,2013-08-13 09:16:00,
2013-08-13 03:31:00,76.2,60.0,29.73,NW,316,3.0,9.0,58,0.00,,,0.00,weatherlink.com 1.10,2013-08-13 09:31:00,
2013-08-13 03:46:00,74.1,62.0,29.73,North,357,3.0,10.0,65,0.00,,,0.00,weatherlink.com 1.10,2013-08-13 09:46:00,
2013-08-13 04:01:00,72.9,62.0,29.73,NW,319,3.0,4.0,69,0.01,,,0.01,weatherlink.com 1.10,2013-08-13 10:01:00,
2013-08-13 04:16:00,74.3,61.0,29.72,NNW,329,4.0,6.0,63,0.01,,,0.01,weatherlink.com 1.10,2013-08-13 10:16:00,
2013-08-13 04:31:00,74.6,61.0,29.72,North,358,1.0,5.0,63,0.01,,,0.01,weatherlink.com 1.10,2013-08-13 10:31:00,
2013-08-13 04:46:00,74.9,60.0,29.72,NNW,336,3.0,5.0,60,0.01,,,0.01,weatherlink.com 1.10,2013-08-13 10:46:00,
2013-08-13 05:01:00,75.0,60.0,29.73,North,5,5.0,5.0,59,0.00,,,0.01,weatherlink.com 1.10,2013-08-13 11:01:00,
2013-08-13 05:16:00,75.1,60.0,29.73,NNW,340,3.0,5.0,59,0.00,,,0.01,weatherlink.com 1.10,2013-08-13 11:16:00,
2013-08-13 05:31:00,75.5,60.0,29.73,NNW,339,2.0,8.0,58,0.00,,,0.01,weatherlink.com 1.10,2013-08-13 11:31:00,
2013-08-13 05:46:00,75.1,60.0,29.74,NNW,332,3.0,11.0,59,0.00,,,0.01,weatherlink.com 1.10,2013-08-13 11:46:00,
2013-08-13 06:01:00,74.8,60.0,29.74,NNE,12,4.0,10.0,60,0.00,,,0.01,weatherlink.com 1.10,2013-08-13 12:01:00,
2013-08-13 06:16:00,75.0,59.0,29.74,North,351,4.0,6.0,58,0.00,,,0.01,weatherlink.com 1.10,2013-08-13 12:16:00,
2013-08-13 06:31:00,76.1,59.0,29.75,NE,49,1.0,10.0,55,0.00,,,0.01,weatherlink.com 1.10,2013-08-13 12:31:00,
2013-08-13 06:46:00,76.9,59.0,29.75,ESE,105,3.0,5.0,54,0.00,,,0.01,weatherlink.com 1.10,2013-08-13 12:46:00,
2013-08-13 07:01:00,77.4,58.0,29.75,ESE,112,4.0,9.0,52,0.00,,,0.01,weatherlink.com 1.10,2013-08-13 13:01:00,
2013-08-13 07:17:00,77.7,59.0,29.75,ESE,109,6.0,8.0,52,0.00,,,0.01,weatherlink.com 1.10,2013-08-13 13:17:00,
2013-08-13 07:32:00,77.6,58.0,29.76,SSW,198,2.0,6.0,52,0.00,,,0.01,weatherlink.com 1.10,2013-08-13 13:32:00,
2013-08-13 07:47:00,77.0,60.0,29.76,SW,223,3.0,4.0,56,0.00,,,0.01,weatherlink.com 1.10,2013-08-13 13:47:00,
2013-08-13 08:02:00,77.0,60.0,29.76,SSW,212,0.0,1.0,56,0.00,,,0.01,weatherlink.com 1.10,2013-08-13 14:02:00,
2013-08-13 08:17:00,77.2,61.0,29.77,West,264,0.0,2.0,57,0.00,,,0.01,weatherlink.com 1.10,2013-08-13 14:17:00,
2013-08-13 08:32:00,77.2,63.0,29.78,NW,326,6.0,8.0,61,0.00,,,0.01,weatherlink.com 1.10,2013-08-13 14:32:00,
2013-08-13 08:47:00,77.6,63.0,29.78,North,350,5.0,9.0,60,0.00,,,0.01,weatherlink.com 1.10,2013-08-13 14:47:00,
2013-08-13 09:02:00,79.4,62.0,29.78,NW,321,4.0,8.0,56,0.00,,,0.01,weatherlink.com 1.10,2013-08-13 15:02:00,
2013-08-13 09:17:00,79.9,62.0,29.78,NNW,339,6.0,10.0,54,0.00,,,0.01,weatherlink.com 1.10,2013-08-13 15:17:00,
2013-08-13 09:32:00,80.2,60.0,29.78,North,360,10.0,11.0,51,0.00,,,0.01,weatherlink.com 1.10,2013-08-13 15:32:00,
2013-08-13 09:47:00,80.7,60.0,29.78,WNW,294,5.0,10.0,50,0.00,,,0.01,weatherlink.com 1.10,2013-08-13 15:47:00,
2013-08-13 10:02:00,80.6,59.0,29.79,NNW,347,5.0,12.0,48,0.00,,,0.01,weatherlink.com 1.10,2013-08-13 16:02:00,
2013-08-13 10:17:00,80.3,59.0,29.78,NNW,327,6.0,10.0,49,0.00,,,0.01,weatherlink.com 1.10,2013-08-13 16:17:00,
2013-08-13 10:32:00,80.6,60.0,29.79,WNW,300,2.0,7.0,49,0.00,,,0.01,weatherlink.com 1.10,2013-08-13 16:32:00,
2013-08-13 10:47:00,80.9,60.0,29.78,WNW,302,2.0,8.0,49,0.00,,,0.01,weatherlink.com 1.10,2013-08-13 16:47:00,
2013-08-13 11:02:00,79.5,60.0,29.79,WNW,302,8.0,11.0,51,0.00,,,0.01,weatherlink.com 1.10,2013-08-13 17:02:00,
2013-08-13 11:17:00,79.1,60.0,29.80,North,360,8.0,10.0,53,0.00,,,0.01,weatherlink.com 1.10,2013-08-13 17:17:00,
2013-08-13 11:32:00,79.3,61.0,29.79,North,352,7.0,11.0,54,0.00,,,0.01,weatherlink.com 1.10,2013-08-13 17:32:00,
2013-08-13 11:47:00,80.5,62.0,29.78,WNW,288,4.0,8.0,53,0.00,,,0.01,weatherlink.com 1.10,2013-08-13 17:47:00,
2013-08-13 12:02:00,82.7,62.0,29.77,WNW,291,1.0,8.0,49,0.00,,,0.01,weatherlink.com 1.10,2013-08-13 18:02:00,
2013-08-13 12:17:00,84.7,61.0,29.77,West,280,5.0,8.0,45,0.00,,,0.01,weatherlink.com 1.10,2013-08-13 18:17:00,
2013-08-13 12:32:00,86.4,61.0,29.76,West,264,10.0,10.0,43,0.00,,,0.01,weatherlink.com 1.10,2013-08-13 18:32:00,
2013-08-13 12:47:00,86.9,61.0,29.76,NNW,347,5.0,9.0,42,0.00,,,0.01,weatherlink.com 1.10,2013-08-13 18:47:00,
2013-08-13 13:17:00,87.5,60.0,29.75,WNW,291,3.0,7.0,40,0.00,,,0.01,weatherlink.com 1.10,2013-08-13 19:17:00,
2013-08-13 13:32:00,88.2,60.0,29.75,WNW,288,5.0,6.0,39,0.00,,,0.01,weatherlink.com 1.10,2013-08-13 19:32:00,
2013-08-13 13:47:00,89.5,60.0,29.74,NNW,329,1.0,7.0,37,0.00,,,0.01,weatherlink.com 1.10,2013-08-13 19:47:00,
2013-08-13 14:02:00,85.8,64.0,29.74,NW,311,7.0,10.0,49,0.00,,,0.01,weatherlink.com 1.10,2013-08-13 20:02:00,
2013-08-13 14:17:00,84.1,64.0,29.73,WNW,298,3.0,11.0,51,0.00,,,0.01,weatherlink.com 1.10,2013-08-13 20:17:00,
2013-08-13 14:32:00,86.1,61.0,29.73,West,263,1.0,8.0,43,0.00,,,0.01,weatherlink.com 1.10,2013-08-13 20:32:00,
2013-08-13 14:47:00,87.4,59.0,29.72,WNW,282,3.0,10.0,38,0.00,,,0.01,weatherlink.com 1.10,2013-08-13 20:47:00,
2013-08-13 15:02:00,88.1,59.0,29.71,NNW,344,4.0,7.0,38,0.00,,,0.01,weatherlink.com 1.10,2013-08-13 21:02:00,
2013-08-13 15:17:00,88.4,58.0,29.71,NNW,329,2.0,9.0,36,0.00,,,0.01,weatherlink.com 1.10,2013-08-13 21:17:00,
2013-08-13 15:32:00,90.1,59.0,29.70,WNW,294,2.0,10.0,35,0.00,,,0.01,weatherlink.com 1.10,2013-08-13 21:32:00,
2013-08-13 15:47:00,90.5,58.0,29.70,West,276,1.0,14.0,33,0.00,,,0.01,weatherlink.com 1.10,2013-08-13 21:47:00,
2013-08-13 16:02:00,91.2,58.0,29.69,WSW,249,1.0,9.0,33,0.00,,,0.01,weatherlink.com 1.10,2013-08-13 22:02:00,
2013-08-13 16:17:00,91.9,57.0,29.70,North,354,5.0,9.0,31,0.00,,,0.01,weatherlink.com 1.10,2013-08-13 22:17:00,
2013-08-13 16:32:00,91.4,57.0,29.69,ENE,63,1.0,11.0,31,0.00,,,0.01,weatherlink.com 1.10,2013-08-13 22:32:00,
2013-08-13 16:47:00,90.1,56.0,29.69,East,99,9.0,15.0,32,0.00,,,0.01,weatherlink.com 1.10,2013-08-13 22:47:00,
2013-08-13 17:02:00,89.3,56.0,29.69,SE,141,2.0,18.0,32,0.00,,,0.01,weatherlink.com 1.10,2013-08-13 23:02:00,
2013-08-13 17:17:00,90.2,56.0,29.68,East,93,2.0,10.0,31,0.00,,,0.01,weatherlink.com 1.10,2013-08-13 23:17:00,
2013-08-13 17:33:00,90.2,56.0,29.68,WNW,301,1.0,13.0,31,0.00,,,0.01,weatherlink.com 1.10,2013-08-13 23:33:00,
2013-08-13 17:47:00,90.0,55.0,29.68,ENE,77,7.0,10.0,30,0.00,,,0.01,weatherlink.com 1.10,2013-08-13 23:47:00,
2013-08-13 18:03:00,90.0,56.0,29.67,ESE,109,15.0,15.0,31,0.00,,,0.01,weatherlink.com 1.10,2013-08-14 00:03:00,
2013-08-13 18:18:00,88.8,55.0,29.67,SSW,194,5.0,14.0,32,0.00,,,0.01,weatherlink.com 1.10,2013-08-14 00:18:00,
2013-08-13 18:33:00,88.6,56.0,29.67,ESE,105,6.0,9.0,33,0.00,,,0.01,weatherlink.com 1.10,2013-08-14 00:33:00,
2013-08-13 18:48:00,88.0,55.0,29.66,NE,34,2.0,10.0,33,0.00,,,0.01,weatherlink.com 1.10,2013-08-14 00:48:00,
2013-08-13 19:03:00,87.5,56.0,29.66,East,94,9.0,15.0,34,0.00,,,0.01,weatherlink.com 1.10,2013-08-14 01:03:00,
2013-08-13 19:18:00,87.3,56.0,29.67,East,98,12.0,12.0,34,0.00,,,0.01,weatherlink.com 1.10,2013-08-14 01:18:00,
2013-08-13 19:33:00,87.1,55.0,29.68,SE,145,5.0,13.0,34,0.00,,,0.01,weatherlink.com 1.10,2013-08-14 01:33:00,
2013-08-13 19:48:00,86.8,55.0,29.68,SE,132,6.0,13.0,34,0.00,,,0.01,weatherlink.com 1.10,2013-08-14 01:48:00,
2013-08-13 20:03:00,86.5,56.0,29.69,ENE,73,6.0,11.0,35,0.00,,,0.01,weatherlink.com 1.10,2013-08-14 02:03:00,
2013-08-13 20:18:00,86.2,56.0,29.68,East,100,9.0,12.0,35,0.00,,,0.01,weatherlink.com 1.10,2013-08-14 02:18:00,
2013-08-13 20:33:00,85.9,56.0,29.68,ENE,63,5.0,14.0,36,0.00,,,0.01,weatherlink.com 1.10,2013-08-14 02:33:00,
2013-08-13 20:48:00,85.8,55.0,29.68,ESE,119,9.0,13.0,35,0.00,,,0.01,weatherlink.com 1.10,2013-08-14 02:48:00,
2013-08-13 21:03:00,85.6,56.0,29.68,ESE,105,6.0,13.0,36,0.00,,,0.01,weatherlink.com 1.10,2013-08-14 03:03:00,
2013-08-13 21:18:00,85.3,55.0,29.69,SE,136,9.0,18.0,35,0.00,,,0.01,weatherlink.com 1.10,2013-08-14 03:18:00,
2013-08-13 21:33:00,85.2,54.0,29.70,East,79,12.0,20.0,34,0.00,,,0.01,weatherlink.com 1.10,2013-08-14 03:33:00,
2013-08-13 21:48:00,84.3,53.0,29.71,East,82,8.0,19.0,34,0.00,,,0.01,weatherlink.com 1.10,2013-08-14 03:48:00,
2013-08-13 22:03:00,84.2,51.0,29.71,East,94,9.0,16.0,32,0.00,,,0.01,weatherlink.com 1.10,2013-08-14 04:03:00,
2013-08-13 22:18:00,84.5,50.0,29.71,East,88,12.0,15.0,30,0.00,,,0.01,weatherlink.com 1.10,2013-08-14 04:18:00,
2013-08-13 22:33:00,84.8,50.0,29.72,ESE,117,10.0,18.0,30,0.00,,,0.01,weatherlink.com 1.10,2013-08-14 04:33:00,
2013-08-13 22:48:00,84.6,50.0,29.72,East,91,7.0,15.0,30,0.00,,,0.01,weatherlink.com 1.10,2013-08-14 04:48:00,
2013-08-13 23:03:00,84.2,50.0,29.72,East,84,11.0,14.0,31,0.00,,,0.01,weatherlink.com 1.10,2013-08-14 05:03:00,
2013-08-13 23:18:00,83.9,53.0,29.73,NNE,26,8.0,17.0,34,0.00,,,0.01,weatherlink.com 1.10,2013-08-14 05:18:00,
2013-08-13 23:33:00,83.4,53.0,29.73,ENE,61,10.0,13.0,35,0.00,,,0.01,weatherlink.com 1.10,2013-08-14 05:33:00,
2013-08-13 23:48:00,83.0,53.0,29.73,ESE,114,3.0,9.0,36,0.00,,,0.01,weatherlink.com 1.10,2013-08-14 05:48:00,